Find OneWeb SL0372

NORAD ID: 49298 Int'l Des: 2021-090 Owner: ONEWEBN Country: UK Constellation: oneweb operational
LEOCIRCULARPOLARONEWEB_TYPE

現在のビュー

3D地球を読み込み中...

About OneWeb SL0372

OneWeb SL0372 (NORAD 49298) is a oneweb constellation satellite launched Oct 14, 2021 by ONEWEBN of UK. It operates in LEO, CIRCULAR, POLAR, ONEWEB_TYPE orbit with a mass of 148.00 kg.

OneWeb SL0372について

説明を読み込み中...

次回通過

Passes for default location (London). Set your location on the main map for personalized predictions.

高度履歴

Loading altitude history...

軌道要素

1 49298U 21090V 26170.73799377 -.00000315 00000-0 -80683-3 0 9991
2 49298 87.9193 273.9327 0002465 103.6872 256.4536 13.20744310230177
Epoch: Jun 19, 2026 • Age: 9 hours

現在のステータス

高度 1187.6 km
速度 7.26 km/s
衛星直下点 44.36°N, 37.85°W
打ち上げ日 Oct 14, 2021
運用期間 4.6 years
タイプ internet

技術仕様

分類 Payload
質量 148.00 kg
乾燥質量 140.00 kg
総質量 148.00 kg
長さ 1.30 m
直径 1.00 m
スパン 5.00 m
形状 Trapezoid+2 pan
製造者 ONEWUS
バスタイプ ARROW
フェーズステータス In Orbit
所有者/国 ONEWEBN/UK

Most Searched